• In Hungary
  • List of Countries
  • For 7 days
  • Water Temperature
  • Satellite Maps
  • Weather Map
  • News
  • Weather Widgets
  • user-avatar
    Login

    Hourly Weather Mingora

    Today, 19 July, Thursday

    Time Temperature Precipitation Wind Pressure Humidity
    00:00 +27°C° 0.2 mm 1 mps 669 mmHg 76%
    01:00 +26°C° 0.2 mm 1 mps 669 mmHg 76%
    02:00 +26°C° 0.2 mm 1 mps 669 mmHg 77%
    03:00 +26°C° 0.3 mm 1 mps 669 mmHg 77%
    04:00 +26°C° 0.3 mm 1 mps 669 mmHg 77%
    05:00 +25°C° 0 mm 1 mps 669 mmHg 77%
    06:00 +27°C° 0 mm 1 mps 669 mmHg 71%
    07:00 +28°C° 0 mm 1 mps 670 mmHg 65%
    08:00 +30°C° 0 mm 1 mps 670 mmHg 59%
    09:00 +31°C° 0.1 mm 1 mps 670 mmHg 56%
    10:00 +32°C° 0.1 mm 2 mps 670 mmHg 53%
    11:00 +34°C° 0.1 mm 3 mps 670 mmHg 50%
    12:00 +35°C° 0.3 mm 3 mps 670 mmHg 49%
    13:00 +35°C° 0.3 mm 3 mps 670 mmHg 48%
    14:00 +36°C° 0.3 mm 3 mps 669 mmHg 47%
    15:00 +35°C° 0.3 mm 3 mps 669 mmHg 48%
    16:00 +35°C° 0.3 mm 2 mps 669 mmHg 49%
    17:00 +35°C° 0.3 mm 2 mps 668 mmHg 50%
    18:00 +32°C° 0.1 mm 2 mps 668 mmHg 55%
    19:00 +31°C° 0.1 mm 1 mps 668 mmHg 59%
    20:00 +28°C° 0.1 mm 0 mps 667 mmHg 64%
    21:00 +27°C° 0.2 mm 0 mps 668 mmHg 66%
    22:00 +29°C° 0.2 mm 1 mps 668 mmHg 68%
    23:00 +28°C° 0.2 mm 1 mps 668 mmHg 69%

    Tomorrow, 20 July, Friday

    Time Temperature Precipitation Wind Pressure Humidity
    00:00 +28°C° 0.1 mm 1 mps 668 mmHg 70%
    01:00 +28°C° 0.1 mm 1 mps 667 mmHg 71%
    02:00 +27°C° 0.1 mm 1 mps 667 mmHg 72%
    03:00 +27°C° 0.5 mm 1 mps 667 mmHg 73%
    04:00 +27°C° 0.5 mm 2 mps 667 mmHg 74%
    05:00 +26°C° 0.5 mm 2 mps 667 mmHg 75%
    06:00 +28°C° 0.2 mm 2 mps 668 mmHg 69%
    07:00 +30°C° 0.2 mm 1 mps 668 mmHg 63%
    08:00 +31°C° 0.2 mm 1 mps 669 mmHg 57%
    09:00 +32°C° 0.2 mm 2 mps 669 mmHg 54%
    10:00 +34°C° 0.2 mm 2 mps 669 mmHg 50%
    11:00 +35°C° 0.2 mm 3 mps 669 mmHg 47%
    12:00 +36°C° 0.3 mm 3 mps 669 mmHg 46%
    13:00 +36°C° 0.3 mm 3 mps 668 mmHg 45%
    14:00 +37°C° 0.3 mm 3 mps 668 mmHg 44%
    15:00 +36°C° 0 mm 2 mps 668 mmHg 45%
    16:00 +36°C° 0 mm 2 mps 668 mmHg 45%
    17:00 +36°C° 0 mm 2 mps 667 mmHg 45%
    18:00 +35°C° 0 mm 2 mps 667 mmHg 50%
    19:00 +32°C° 0 mm 1 mps 667 mmHg 55%
    20:00 +29°C° 0 mm 0 mps 667 mmHg 60%
    21:00 +30°C° 0.1 mm 1 mps 667 mmHg 62%
    22:00 +30°C° 0.1 mm 1 mps 668 mmHg 64%
    23:00 +29°C° 0.1 mm 2 mps 668 mmHg 66%

    Day after tomorrow, 21 July, Saturday

    Time Temperature Precipitation Wind Pressure Humidity
    00:00 +29°C° 0.2 mm 2 mps 668 mmHg 67%
    01:00 +28°C° 0.2 mm 2 mps 667 mmHg 68%
    02:00 +28°C° 0.2 mm 2 mps 667 mmHg 69%
    03:00 +28°C° 0.2 mm 2 mps 667 mmHg 69%
    04:00 +27°C° 0.2 mm 2 mps 667 mmHg 69%
    05:00 +27°C° 0.2 mm 2 mps 667 mmHg 70%
    06:00 +29°C° 0.3 mm 2 mps 668 mmHg 64%
    07:00 +30°C° 0.3 mm 1 mps 668 mmHg 59%
    08:00 +32°C° 0.3 mm 1 mps 669 mmHg 54%
    09:00 +34°C° 0.1 mm 2 mps 669 mmHg 51%
    10:00 +35°C° 0.1 mm 2 mps 670 mmHg 48%
    11:00 +36°C° 0.1 mm 2 mps 670 mmHg 45%
    12:00 +37°C° 0 mm 2 mps 669 mmHg 44%
    13:00 +37°C° 0 mm 3 mps 669 mmHg 42%
    14:00 +38°C° 0 mm 3 mps 668 mmHg 41%
    15:00 +38°C° 0 mm 3 mps 668 mmHg 42%
    16:00 +37°C° 0 mm 3 mps 668 mmHg 42%
    17:00 +37°C° 0 mm 2 mps 667 mmHg 43%
    18:00 +36°C° 0 mm 2 mps 667 mmHg 47%
    19:00 +33°C° 0 mm 1 mps 668 mmHg 52%
    20:00 +32°C° 0 mm 1 mps 668 mmHg 57%
    21:00 +31°C° 0 mm 1 mps 668 mmHg 59%
    22:00 +31°C° 0 mm 1 mps 668 mmHg 62%
    23:00 +30°C° 0 mm 2 mps 668 mmHg 64%

    22 July, Sunday

    Time Temperature Precipitation Wind Pressure Humidity
    00:00 +30°C° 0.2 mm 2 mps 668 mmHg 65%
    01:00 +29°C° 0.2 mm 2 mps 667 mmHg 65%
    02:00 +29°C° 0.2 mm 2 mps 667 mmHg 66%
    03:00 +29°C° 0 mm 2 mps 667 mmHg 66%
    04:00 +28°C° 0 mm 2 mps 666 mmHg 65%
    05:00 +28°C° 0 mm 2 mps 666 mmHg 65%
    06:00 +30°C° 0 mm 2 mps 667 mmHg 59%
    07:00 +32°C° 0 mm 1 mps 667 mmHg 54%
    08:00 +33°C° 0 mm 1 mps 668 mmHg 48%
    09:00 +34°C° 0 mm 1 mps 668 mmHg 46%
    10:00 +36°C° 0 mm 2 mps 668 mmHg 43%
    11:00 +38°C° 0 mm 3 mps 668 mmHg 41%
    12:00 +38°C° 0 mm 3 mps 667 mmHg 40%
    13:00 +39°C° 0 mm 3 mps 667 mmHg 39%
    14:00 +39°C° 0 mm 3 mps 667 mmHg 38%
    15:00 +39°C° 0 mm 3 mps 666 mmHg 39%
    16:00 +38°C° 0 mm 3 mps 666 mmHg 40%
    17:00 +38°C° 0 mm 3 mps 666 mmHg 41%
    18:00 +37°C° 0.1 mm 2 mps 666 mmHg 45%
    19:00 +34°C° 0.1 mm 1 mps 666 mmHg 50%
    20:00 +32°C° 0.1 mm 1 mps 666 mmHg 55%
    21:00 +32°C° 0.4 mm 1 mps 667 mmHg 58%
    22:00 +31°C° 0.4 mm 1 mps 667 mmHg 61%
    23:00 +30°C° 0.4 mm 2 mps 667 mmHg 65%

    23 July, Monday

    Time Temperature Precipitation Wind Pressure Humidity
    00:00 +29°C° 0.8 mm 1 mps 667 mmHg 67%
    01:00 +29°C° 0.8 mm 1 mps 667 mmHg 70%
    02:00 +26°C° 0.8 mm 0 mps 666 mmHg 72%
    03:00 +26°C° 0.4 mm 0 mps 666 mmHg 74%
    04:00 +25°C° 0.4 mm 0 mps 666 mmHg 76%
    05:00 +25°C° 0.4 mm 0 mps 666 mmHg 78%
    06:00 +28°C° 0 mm 1 mps 667 mmHg 74%
    07:00 +29°C° 0 mm 1 mps 667 mmHg 70%
    08:00 +31°C° 0 mm 1 mps 667 mmHg 65%
    09:00 +31°C° 0.3 mm 2 mps 667 mmHg 63%
    10:00 +32°C° 0.3 mm 2 mps 667 mmHg 60%
    11:00 +34°C° 0.3 mm 3 mps 667 mmHg 58%
    12:00 +34°C° 0.7 mm 3 mps 667 mmHg 58%
    13:00 +34°C° 0.7 mm 3 mps 667 mmHg 58%
    14:00 +35°C° 0.7 mm 4 mps 666 mmHg 58%
    15:00 +34°C° 1.1 mm 3 mps 666 mmHg 61%
    16:00 +33°C° 1.1 mm 3 mps 666 mmHg 64%
    17:00 +33°C° 1.1 mm 3 mps 666 mmHg 66%
    18:00 +30°C° 0.9 mm 2 mps 666 mmHg 72%
    19:00 +29°C° 0.9 mm 2 mps 667 mmHg 77%
    20:00 +28°C° 0.9 mm 1 mps 667 mmHg 83%
    21:00 +28°C° 0.8 mm 1 mps 667 mmHg 83%
    22:00 +28°C° 0.8 mm 1 mps 667 mmHg 83%
    23:00 +27°C° 0.8 mm 1 mps 668 mmHg 83%

    24 July, Tuesday

    Time Temperature Precipitation Wind Pressure Humidity
    00:00 +27°C° 1 mm 1 mps 668 mmHg 84%
    01:00 +27°C° 1 mm 1 mps 667 mmHg 85%
    02:00 +26°C° 1 mm 1 mps 667 mmHg 87%
    03:00 +26°C° 0.4 mm 1 mps 667 mmHg 88%
    04:00 +26°C° 0.4 mm 1 mps 667 mmHg 89%
    05:00 +23°C° 0.4 mm 0 mps 667 mmHg 90%
    06:00 +26°C° 0.1 mm 1 mps 668 mmHg 86%
    07:00 +27°C° 0.1 mm 1 mps 668 mmHg 83%
    08:00 +27°C° 0.1 mm 1 mps 669 mmHg 79%
    09:00 +28°C° 0.1 mm 1 mps 669 mmHg 75%
    10:00 +29°C° 0.1 mm 2 mps 669 mmHg 71%
    11:00 +30°C° 0.1 mm 2 mps 669 mmHg 67%
    12:00 +31°C° 0.4 mm 2 mps 669 mmHg 65%
    13:00 +31°C° 0.4 mm 3 mps 668 mmHg 63%
    14:00 +33°C° 0.4 mm 3 mps 668 mmHg 60%
    15:00 +32°C° 0.6 mm 2 mps 668 mmHg 61%
    16:00 +32°C° 0.6 mm 2 mps 668 mmHg 62%
    17:00 +32°C° 0.6 mm 2 mps 668 mmHg 62%
    18:00 +31°C° 0.3 mm 2 mps 668 mmHg 68%
    19:00 +29°C° 0.3 mm 1 mps 668 mmHg 73%
    20:00 +28°C° 0.3 mm 1 mps 668 mmHg 78%
    21:00 +28°C° 0.4 mm 1 mps 668 mmHg 80%
    22:00 +27°C° 0.4 mm 1 mps 668 mmHg 81%
    23:00 +25°C° 0.4 mm 0 mps 668 mmHg 83%
    Show more